Starlink 31532

operational
NORAD ID: 59349 Int'l Des: 2024-060 Owner: SPXS Country: US Constellation: starlink
LEOCIRCULAR

Starlink 31532について

説明を読み込み中...

リアルタイム位置

3D地球を読み込み中...

次回通過

高度履歴

Altitude vs Time

uPlot chart will show altitude changes over time

軌道要素

1 59349U 24060B 25308.80707354 -.00001048 00000-0 -28568-4 0 9992
2 59349 43.0002 245.1333 0000553 309.9785 50.1018 15.27577184 91019
Epoch: Nov 4, 2025 • Age: 15 hours

現在のステータス

高度 485.5 km
速度 7.63 km/s
衛星直下点 38.28°N, 169.56°E
打ち上げ日 Mar 31, 2024
運用期間 1.5 years
タイプ internet

技術仕様

分類 Payload
質量 730.00 kg
乾燥質量 700.00 kg
総質量 730.00 kg
長さ 0.30 m
直径 4.10 m
スパン 29.00 m
形状 Box + pan
製造者 SPXS
バスタイプ Starlink V2M
フェーズステータス In Orbit
所有者/国 SPXS/US

大規模コンステレーション

Loading constellations...